Location: Rounton
(54.4000°N, 1.3500°W)
Time: 14:47:38
(UTC+00:00)

Transit 4A - Pass Details

Date: 06 December 2021
Orbit: 864 x 981 km, 66.8° (Epoch: 20 January)

Event Time Altitude Azimuth Distance (km) Brightness Sun altitude
Rises 18:39:25 0° 194° (SSW) 3,461 11.1 -24.3°
Reaches altitude 10° 18:41:58 10° 188° (S) 2,539 10.3 -24.7°
Enters shadow 18:46:14 39° 150° (SSE) 1,322 8.4 -25.3°
Maximum altitude 18:47:29 44° 118° (ESE) 1,228 - -25.5°
Drops below altitude 10° 18:53:12 10° 48° (NE) 2,626 - -26.3°
Sets 18:55:52 0° 43° (NE) 3,592 - -26.7°
